Location: Jetmore Oil Field
(38.1181°N, 99.9337°W)
Time: 19:11:28
(UTC+00:00)

Cosmos 1607 - Pass Details

Date: 17 February 2020
Orbit: 920 x 982 km, 65.0° (Epoch: 05 April)

Event Time Altitude Azimuth Distance (km) Brightness Sun altitude
Rises 01:33:13 0° 335° (NNW) 3,631 7.3 -15.2°
Reaches altitude 10° 01:35:57 10° 343° (NNW) 2,693 6.5 -15.7°
Maximum altitude 01:41:51 40° 52° (NE) 1,390 4.4 -16.9°
Enters shadow 01:44:44 26° 101° (ESE) 1,798 4.8 -17.5°
